Showing default

GOES 19, 60133

Orbit data source: Space-Track

GOES 19, 60133 is a payload satellite owned by NOAA (US) in GEO that was launched on Tue, 25 Jun 2024 UTC via an FALCON HEAVY launch vehicle from the Air Force Eastern Test Range (AFETR). Payload-class satellites include a variety of spacecraft equipped with specific instruments for various scientific and technological missions. These include communications satellites like Starlink; space stations such as the ISS; scientific satellites like the Hubble; Earth observation satellites from companies like Planet Labs, Umbra, and HawkEye 360; GPS; miniature CubeSats for education and research; and military/defense satellites.

Loading next visibility...
Identifier
60133, 2024-119A
Orbit
GEO
Last TLE update
10 hours ago
Origin
Manufacturer
LMCSS
Mission
Operational Civil Weather
Bus & Motor
A2100, LEROS-1C
Mass
~5,000 kg wet, 2,925 kg dry
Launch date (UTC)
2024-06-25 (1 year ago)
Launch vehicle
FALCON HEAVY
Launch site
Air Force Eastern Test Range (AFETR)
Object type
Payload
Rocket body
Debris
Shape & HBR
Box + 1 Pan + 1 Rod, 12 m
Radar Cross Section
37.561 m²

Expand to show TLE details & history

TLE from 10 hours ago
0 GOES 19
1 60133U 24119A   25186.54986081 -.00000232  00000-0  00000-0 0  9991
2 60133   0.0379 152.6409 0000213  21.3450 232.5433  1.00271276  3485
Epoch: 2025-07-05T13:11Z
TLE epoch observation values (Epoch: 2025-07-05T13:11:47.973Z)
Latitude
-0.01153°
Longitude
-75.20623°
Altitude
35,786.772 km
Speed
3.075 km/s
True Right ascension
03h 06m 07s
True Declination
0° 00' 41"
Sunlit
Object was in daylight at epoch
Visualization orbit readout
Latitude
0.01816°
Longitude
76.64506°
Altitude
35,785.449 km
Speed
3.075 km/s
Apparent Right ascension
13h 28m 16s
Apparent Declination
-6° 05' 43"
Sunlit
Object is in daylight
Visualization observer readout
Local Sidereal Time
11:13:52
Azimuth
138.081° SSE
Elevation
34.548°
Doppler factor
1
Orbital elements
Apogee altitude
35,788.706 km
Perigee altitude
35,786.91 km
Semi-major axis
42,165.945 km
Eccentricity
0.00002
Inclination
0.0379°
RAAN
152.6409°
Arg. of periapsis
21.345°
True anomaly
Unknown
Mean anomaly
232.5433°
Eccentric anomaly
Unknown
Mean motion
0.25067 °/min
Orbital period
1,436.16 mins
BSTAR
0
Loading historical data...
60133 neighbors
Loading maneuver chart data...
Loading SW <> Apogee altitude chart data...
Loading historical data...
Loading historical data...
Loading historical data...
Loading historical data...
Loading historical data...
Loading historical data...
Loading historical data...
Other satellites on launch #119 in the year 2024 (2024-06-25 UTC)

GOES 19 Visibility forecast

Observer location: undefined°, undefined°

Span
Click to sort rows by Start time (UTC) header in descending order
Start Az.
Max El. time (UTC)
Max El. Az.
Max El.
End time (UTC)
End Az.
1440 mins2025-07-05 23:17:32.364Z138.094° SSE2025-07-06 22:05:32.364Z138.097° SSE29.553°2025-07-06 23:17:32.364Z138.098° SSE
|